Location: Recife
(8.0585°S, 34.8848°W)
Time: 06:44:03
(UTC-03:00)

Vanguard 3 - Pass Details

Date: 14 April 2026
Orbit: 507 x 3205 km, 33.4° (Epoch: 13 May)

Event Time Altitude Azimuth Distance (km) Brightness Sun altitude
Rises 11:52:51 0° 253° (WSW) 6,604 11.8 70.6°
Reaches altitude 10° 11:58:05 10° 242° (WSW) 5,855 11.7 70.0°
Maximum altitude 12:13:42 30° 188° (S) 4,643 11.2 67.8°
Drops below altitude 10° 12:28:41 10° 132° (SE) 5,596 11.3 65.4°
Sets 12:33:34 0° 121° (ESE) 6,282 11.4 64.5°
